Historique des stations

Station météo de Chassignolles

Altitude de la station : 290 m







Données météorologiques pour le 02/12/2021
Date
Heure
Températures Humidité Point de rosée Vitesse
du vent
Direction Rafales Windchill Pression Pluviométrie
Cumul
Date
Heure
Températures Humidité Point de rosée Vitesse
du vent
Direction Rafales Windchill Pression Pluviométrie
Cumul
02/12/2021 17:303.1 °C86 %1.1 °C---3.3 1013 hPa1 mm
02/12/2021 17:293.1 °C86 %1.1 °C---3.3 1013 hPa1 mm
02/12/2021 17:153.3 °C85 %1.1 °C---3.3 1013 hPa1 mm
02/12/2021 17:143.4 °C85 %1.1 °C---3.3 1013 hPa1 mm
02/12/2021 17:003.7 °C85 %1.7 °C---3.9 1012 hPa1 mm
02/12/2021 16:593.7 °C85 %1.7 °C---3.9 1012 hPa1 mm
02/12/2021 16:454.0 °C84 %1.7 °C---3.9 1012 hPa1 mm
02/12/2021 16:444.0 °C84 %1.7 °C---3.9 1012 hPa1 mm
02/12/2021 16:304.1 °C83 %1.7 °C---3.9 1012 hPa1 mm
02/12/2021 16:294.2 °C83 %1.7 °C---4.4 1012 hPa1 mm
02/12/2021 16:154.2 °C83 %1.7 °C---4.4 1012 hPa1 mm
02/12/2021 16:134.2 °C83 %1.7 °C---4.4 1012 hPa1 mm
02/12/2021 16:004.2 °C82 %1.7 °C---4.4 1012 hPa1 mm
02/12/2021 15:594.2 °C82 %1.7 °C---4.4 1012 hPa1 mm
02/12/2021 15:454.3 °C81 %1.1 °C---4.4 1012 hPa1 mm
02/12/2021 15:444.3 °C81 %1.1 °C---4.4 1012 hPa1 mm
02/12/2021 15:304.3 °C81 %1.1 °C---4.4 1012 hPa1 mm
02/12/2021 15:294.4 °C81 %1.7 °C---4.4 1012 hPa1 mm
02/12/2021 15:154.4 °C80 %1.1 °C---4.4 1012 hPa1 mm
02/12/2021 15:144.4 °C81 %1.7 °C---4.4 1012 hPa1 mm
02/12/2021 15:004.5 °C80 %1.1 °C---4.4 1012 hPa1 mm
02/12/2021 14:594.5 °C80 %1.1 °C---4.4 1012 hPa1 mm
02/12/2021 14:454.4 °C79 %1.1 °C---4.4 1012 hPa1 mm
02/12/2021 14:444.4 °C79 %1.1 °C---4.4 1012 hPa1 mm
02/12/2021 14:304.5 °C81 %1.7 °C---4.4 1012 hPa1 mm
02/12/2021 14:294.5 °C81 %1.7 °C---4.4 1012 hPa1 mm
02/12/2021 14:154.5 °C81 %1.7 °C---4.4 1012 hPa1 mm
02/12/2021 14:144.5 °C81 %1.7 °C---4.4 1012 hPa1 mm
02/12/2021 14:004.6 °C81 %1.7 °C---4.4 1012 hPa1 mm
02/12/2021 13:594.6 °C81 %1.7 °C---4.4 1012 hPa1 mm
02/12/2021 13:454.4 °C81 %1.7 °C---4.4 1012 hPa1 mm
02/12/2021 13:444.4 °C81 %1.7 °C---4.4 1012 hPa1 mm
02/12/2021 13:304.3 °C80 %1.1 °C---4.4 1012 hPa1 mm
02/12/2021 13:294.3 °C80 %1.1 °C---4.4 1012 hPa1 mm
02/12/2021 13:154.4 °C80 %1.1 °C---4.4 1012 hPa1 mm
02/12/2021 13:144.3 °C80 %1.1 °C---4.4 1012 hPa1 mm
02/12/2021 13:004.5 °C81 %1.7 °C---4.4 1012 hPa1 mm
02/12/2021 12:594.4 °C81 %1.7 °C---4.4 1012 hPa1 mm
02/12/2021 12:454.4 °C80 %1.1 °C---4.4 1012 hPa1 mm
02/12/2021 12:444.4 °C81 %1.7 °C---4.4 1011 hPa1 mm
02/12/2021 12:304.5 °C82 %1.7 °C---4.4 1012 hPa1 mm
02/12/2021 12:294.5 °C82 %1.7 °C---4.4 1012 hPa1 mm
02/12/2021 12:154.6 °C82 %1.7 °C---4.4 1012 hPa1 mm
02/12/2021 12:144.6 °C82 %1.7 °C---4.4 1012 hPa1 mm
02/12/2021 12:004.4 °C84 %2.2 °C---4.4 1011 hPa1 mm
02/12/2021 11:454.2 °C86 %2.2 °C---4.4 1011 hPa1 mm
02/12/2021 11:303.9 °C86 %1.7 °C---3.9 1011 hPa1 mm
02/12/2021 11:143.8 °C87 %1.7 °C---3.9 1011 hPa1 mm
02/12/2021 10:593.6 °C89 %2.2 °C---3.3 1011 hPa1 mm
02/12/2021 10:443.6 °C89 %2.2 °C---3.3 1011 hPa1 mm
02/12/2021 10:293.4 °C90 %2.2 °C---3.3 1010 hPa1 mm
02/12/2021 10:143.1 °C91 %1.7 °C---3.3 1010 hPa1 mm
02/12/2021 09:593.3 °C92 %2.2 °C---3.3 1010 hPa1 mm
02/12/2021 09:443.6 °C93 %2.8 °C---3.3 1010 hPa1 mm
02/12/2021 09:293.6 °C94 %2.8 °C---3.9 1010 hPa1 mm
02/12/2021 09:143.6 °C94 %2.8 °C---3.9 1009 hPa1 mm
02/12/2021 08:593.6 °C94 %2.8 °C---3.9 1009 hPa1 mm
02/12/2021 08:443.6 °C94 %2.8 °C---3.3 1009 hPa1 mm
02/12/2021 08:293.6 °C94 %2.8 °C---3.3 1009 hPa0.8 mm
02/12/2021 08:143.6 °C94 %2.8 °C---3.3 1008 hPa0.8 mm
02/12/2021 08:003.6 °C94 %2.8 °C---3.3 1008 hPa0.8 mm
02/12/2021 07:593.6 °C94 %2.8 °C---3.3 1008 hPa0.8 mm
02/12/2021 07:453.6 °C93 %2.8 °C---3.3 1008 hPa0.6 mm
02/12/2021 07:443.6 °C93 %2.8 °C---3.3 1008 hPa0.6 mm
02/12/2021 07:303.7 °C93 %2.8 °C---3.9 1007 hPa0.6 mm
02/12/2021 07:293.7 °C93 %2.8 °C---3.9 1007 hPa0.4 mm
02/12/2021 07:143.7 °C93 %2.8 °C---3.9 1007 hPa-
02/12/2021 07:003.8 °C93 %2.8 °C---3.9 1007 hPa-
02/12/2021 06:593.8 °C93 %2.8 °C---3.9 1007 hPa-
02/12/2021 06:454.0 °C93 %2.8 °C---3.9 1007 hPa-
02/12/2021 06:444.0 °C93 %2.8 °C---3.9 1007 hPa-
02/12/2021 06:304.0 °C93 %2.8 °C---3.9 1007 hPa-
02/12/2021 06:294.0 °C93 %2.8 °C---3.9 1007 hPa-
02/12/2021 06:154.1 °C93 %3.3 °C---3.9 1006 hPa-
02/12/2021 06:144.0 °C93 %2.8 °C---3.9 1006 hPa-
02/12/2021 06:004.1 °C93 %3.3 °C---3.9 1006 hPa-
02/12/2021 05:594.1 °C93 %3.3 °C---3.9 1006 hPa-
02/12/2021 05:454.2 °C93 %3.3 °C---4.4 1006 hPa-
02/12/2021 05:444.2 °C92 %2.8 °C---4.4 1006 hPa-
02/12/2021 05:304.3 °C93 %3.3 °C---4.4 1006 hPa-
02/12/2021 05:294.3 °C93 %3.3 °C---4.4 1006 hPa-
02/12/2021 05:154.3 °C93 %3.3 °C---4.4 1006 hPa-
02/12/2021 05:144.3 °C93 %3.3 °C---4.4 1006 hPa-
02/12/2021 05:004.4 °C93 %3.3 °C---4.4 1006 hPa-
02/12/2021 04:594.4 °C93 %3.3 °C---4.4 1006 hPa-
02/12/2021 04:454.5 °C92 %3.3 °C---4.4 1006 hPa-
02/12/2021 04:444.6 °C92 %3.3 °C---4.4 1006 hPa-
02/12/2021 04:304.6 °C93 %3.9 °C---4.4 1006 hPa-
02/12/2021 04:294.7 °C93 %3.9 °C---4.4 1006 hPa-
02/12/2021 04:154.7 °C93 %3.9 °C---5.0 1006 hPa-
02/12/2021 04:144.7 °C93 %3.9 °C---5.0 1006 hPa-
02/12/2021 04:004.8 °C93 %3.9 °C---5.0 1006 hPa-
02/12/2021 03:594.8 °C92 %3.9 °C---5.0 1006 hPa-
02/12/2021 03:454.8 °C92 %3.9 °C---5.0 1006 hPa-
02/12/2021 03:444.8 °C93 %3.9 °C---5.0 1006 hPa-
02/12/2021 03:304.8 °C92 %3.9 °C---5.0 1006 hPa-
02/12/2021 03:294.8 °C92 %3.9 °C---5.0 1006 hPa-
02/12/2021 03:154.8 °C93 %3.9 °C---5.0 1006 hPa-
02/12/2021 03:004.7 °C93 %3.9 °C---5.0 1006 hPa-
02/12/2021 02:454.8 °C92 %3.9 °C---5.0 1006 hPa-
02/12/2021 02:304.9 °C93 %3.9 °C---5.0 1006 hPa-
02/12/2021 02:154.9 °C92 %3.9 °C---5.0 1006 hPa-
02/12/2021 02:005.1 °C92 %3.9 °C---5.0 1006 hPa-
02/12/2021 01:465.2 °C92 %3.9 °C---5.0 1006 hPa-
02/12/2021 01:435.2 °C92 %3.9 °C---5.0 1006 hPa-
02/12/2021 01:305.2 °C93 %4.4 °C---5.0 1006 hPa-
02/12/2021 01:295.2 °C93 %4.4 °C---5.0 1006 hPa-
02/12/2021 01:155.2 °C92 %3.9 °C---5.0 1006 hPa-
02/12/2021 01:145.2 °C92 %3.9 °C---5.0 1006 hPa-
02/12/2021 01:025.2 °C93 %4.4 °C---5.0 1006 hPa-
02/12/2021 01:015.2 °C93 %4.4 °C---5.0 1006 hPa-
02/12/2021 00:455.0 °C93 %3.9 °C---5.0 1006 hPa-
02/12/2021 00:444.9 °C93 %3.9 °C---5.0 1006 hPa-
02/12/2021 00:294.7 °C92 %3.3 °C---4.4 1006 hPa-
02/12/2021 00:144.8 °C92 %3.9 °C---5.0 1006 hPa-


Minima :

Température : 3.1 °C
Humidité : 79 %
Point de rosée : 1.1 °C
Vent moyen : - km/h
Windchill : 3.3
Pression atm. : 1006 hPa
Maxima :

Température : 5.2 °C
Humidité : 94 %
Point de rosée : 4.4 °C
Vent moyen : 0 km/h
Windchill : 5.0
Pression atm. : 1013 hPa
Rafales max : - km/h
Cumul de pluie sur 24H : 1 mm

Chassignolles est une commune du département Indre (36).
La station météorologique du réseau de l'association la plus proche de Chassignolles est celle de Beddes



Icône Facebook Association Météo Centre Icône Twitter Association Météo Centre Icône Chaîne Youtube Association Météo Centre Icône contact Association Météo Centre Icône Insta Association Météo Centre